Showing default

KORSAT-2, 62377

Orbit data source: Space-Track

KORSAT-2, 62377 is a payload satellite owned by DAPA (KR) in LEO that was launched on Sat, 21 Dec 2024 UTC via an FALCON 9 launch vehicle from the Air Force Western Test Range (AFWTR). Payload-class satellites include a variety of spacecraft equipped with specific instruments for various scientific and technological missions. These include communications satellites like Starlink; space stations such as the ISS; scientific satellites like the Hubble; Earth observation satellites from companies like Planet Labs, Umbra, and HawkEye 360; GPS; miniature CubeSats for education and research; and military/defense satellites.

Loading next visibility...
Identifier
62377, 2024-247A
Orbit
LEO
Country
Flag of KRKR / SKOR
Related business
Manufacturer
KAI
Mission
Operational Defense Radar Imaging
Bus & Motor
CAS500?, Unknown motor
Mass
~800 kg wet, ~750 kg dry
Launch date (UTC)
2024-12-21 (1 year ago)
Launch vehicle
FALCON 9
Launch site
Air Force Western Test Range (AFWTR)
Object type
Payload
Rocket body
Debris
Shape & HBR
Hex Box + 3 Pan, 3.0 m
Radar Cross Section
10.467 m², Large (>1 m²)

Expand to show TLE details & history
Last TLE update: 11 hours ago

TLE from 11 hours ago
0 KORSAT-2
1 62377U 24247A   26171.39489028  .00002573  00000-0  22897-3 0  9992
2 62377  45.4106  51.1872 0003903 242.8529 117.1951 14.98787040 82045
Epoch: 2026-06-20T09:28Z
TLE epoch observation values (Epoch: 2026-06-20T09:28:38.520Z)
Latitude
-0.00003°
Longitude
0.41653°
Altitude
571.927 km
Speed
7.576 km/s
True Right ascension
03h 24m 44s
True Declination
0° 00' 00"
Sunlit
Object was in daylight at epoch
Visualization orbit readout
Latitude
Unknown
Longitude
Unknown
Altitude
Unknown
Speed
Unknown
Apparent Right ascension
Unknown
Apparent Declination
Unknown
Sunlit
N/A
Visualization observer readout
Local Sidereal Time
07:18:33
Azimuth
Unknown
Elevation
Unknown
Doppler factor
Unknown
Orbital elements
Apogee altitude
574.876 km
Perigee altitude
569.451 km
Semi-major axis
6,950.301 km
Eccentricity
0.00039
Inclination
45.4106°
RAAN
51.1872°
Arg. of periapsis
242.8529°
True anomaly
117.23487°
Mean anomaly
117.1951°
Eccentric anomaly
117.21499°
Mean motion
3.74574 °/min
Orbital period
96.11 mins
BSTAR
0.00022897
Loading maneuver chart data...
Computing Atmospheric mass density...
Loading historical data...
Loading historical data...
Loading historical data...
Loading historical data...
Loading historical data...
Loading historical data...
Loading historical data...

Documentation

Showing up to 5 results
|